STARLINK-33949, 64105

Orbit data source: Space-Track

STARLINK-33949, 64105 is a payload satellite owned by SpaceX/Seattle (US) in LEO that was launched on Fri, 23 May 2025 UTC via an FALCON 9 launch vehicle from the Air Force Western Test Range (AFWTR). Payload-class satellites include a variety of spacecraft equipped with specific instruments for various scientific and technological missions. These include communications satellites like Starlink; space stations such as the ISS; scientific satellites like the Hubble; Earth observation satellites from companies like Planet Labs, Umbra, and HawkEye 360; GPS; miniature CubeSats for education and research; and military/defense satellites.

Loading next visibility...
Identifier
64105, 2025-110K
Orbit
LEO
Country
Flag of USUS
Related business
Manufacturer
SpaceX/Seattle
Mission
Operational Commercial Communications
Bus & Motor
STARLINK V2MO, Unknown motor
Mass
575 kg wet, ~530 kg dry
Launch date (UTC)
2025-05-23 (1 year ago)
Launch vehicle
FALCON 9
Launch site
Air Force Western Test Range (AFWTR)
Object type
Payload
Rocket body
Debris
Shape & HBR
Box + 2 Pan, 17.7 m
Radar Cross Section
36.964 m², Large (>1 m²)

Expand to show TLE details & history
Last TLE update: 1 day ago

TLE from 1 day ago
0 STARLINK-33949
1 64105U 25110K   26170.68671103  .00014727  00000-0  48520-3 0  9996
2 64105  53.1595 272.6515 0001090  79.6334 280.4790 15.31713010 61500
Epoch: 2026-06-19T16:28Z
TLE epoch observation values (Epoch: 2026-06-19T16:28:51.832Z)
Latitude
-0.00007°
Longitude
117.52336°
Altitude
471.466 km
Speed
7.632 km/s
True Right ascension
18h 10m 36s
True Declination
0° 00' 00"
Sunlit
Object was in full shadow at epoch
Visualization orbit readout
Latitude
Unknown
Longitude
Unknown
Altitude
Unknown
Speed
Unknown
Apparent Right ascension
Unknown
Apparent Declination
Unknown
Sunlit
N/A
Visualization observer readout
Local Sidereal Time
07:17:13
Azimuth
Unknown
Elevation
Unknown
Doppler factor
Unknown
Orbital elements
Apogee altitude
471.704 km
Perigee altitude
470.211 km
Semi-major axis
6,849.095 km
Eccentricity
0.00011
Inclination
53.1595°
RAAN
272.6515°
Arg. of periapsis
79.6334°
True anomaly
280.46672°
Mean anomaly
280.479°
Eccentric anomaly
280.47286°
Mean motion
3.82907 °/min
Orbital period
94.02 mins
BSTAR
0.0004852
Loading maneuver chart data...
Computing Atmospheric mass density...
Loading historical data...
Loading historical data...
Loading historical data...
Loading historical data...
Loading historical data...
Loading historical data...
Loading historical data...

Documentation

Showing up to 5 results
|